Regional Weather Roundup
Issued by NWS

Home | Current Version | Previous Version | Graphics & Text | Print | Product List | Glossary On
Versions: 1 2 3 4 5 6 7 8 9 10 11 12 13 14 15 16 17 18 19 20 21 22 23 24 25 26 27 28 29 30 31 32 33 34 35 36 37 38 39 40 41 42 43 44 45 46 47 48 49 50
000
ASUS43 KMKX 221800
RWRWI

WISCONSIN REGIONAL WEATHER ROUNDUP
NATIONAL WEATHER SERVICE MILWAUKEE/SULLIVAN WI
100 PM CDT TUE JUL 22 2014

NOTE: "FAIR" INDICATES FEW OR NO CLOUDS BELOW 12,000 FEET WITH NO
SIGNIFICANT WEATHER AND/OR OBSTRUCTIONS TO VISIBILITY.

WIZ001-002-006>008-014>016-023>028-221900-
NORTHWEST WISCONSIN

CITY           SKY/WX    TMP DP  RH WIND       PRES   REMARKS
SUPERIOR ARPT  PTSUNNY   77  65  64 NW10G20   29.93R
ASHLAND        CLOUDY    73  63  70 W12G23    29.93R
6HR MIN TEMP:  71; 6HR MAX TEMP:  76;

HAYWARD        CLOUDY    73  63  70 W8        29.97R
6HR MIN TEMP:  71; 6HR MAX TEMP:  74;

SIREN          CLOUDY    73  62  68 NW10      29.98R
RICE LAKE      CLOUDY    76  62  61 W13       29.98S
LADYSMITH      CLOUDY    78  65  62 NW15      29.98R HX  80
EAU CLAIRE     NOT AVBL
MENOMONIE      MOCLDY    81  65  58 NW10      29.97R HX  83
NEW RICHMOND   PTSUNNY   76  63  63 NW12G17   29.99S
OSCEOLA        CLOUDY    75  64  68 NW12      30.02R
$$

WIZ003>005-009-010-017-018-221900-
NORTH CENTRAL WISCONSIN

CITY           SKY/WX    TMP DP  RH WIND       PRES   REMARKS
WOODRUFF       MOSUNNY   80  66  63 N14       29.91S HX  82
RHINELANDER    MOSUNNY   79  64  60 NW17      29.91R HX  81
6HR MIN TEMP:  72; 6HR MAX TEMP:  80;

EAGLE RIVER    PTSUNNY   77  62  59 NW16G25   29.89S
LAND O LAKES   PTSUNNY   77  63  62 W14G22    29.90R
PHILLIPS       PTSUNNY   77  65  67 NW14G20   29.92R
TOMAHAWK       MOSUNNY   79  64  60 NW13G21   29.91R HX  80
MEDFORD        MOSUNNY   78  66  66 NW14      29.94R HX  80
MERRILL        SUNNY     82  67  60 NW13G20   29.91R HX  84
$$

WIZ029-030-035-036-043>047-221900-
CENTRAL WISCONSIN

CITY           SKY/WX    TMP DP  RH WIND       PRES   REMARKS
WAUSAU         SUNNY     86  65  49 W15       29.89R HX  88
6HR MIN TEMP:  74; 6HR MAX TEMP:  87;

MOSINEE        MOSUNNY   84  68  58 W13G21    29.91R HX  87
MARSHFIELD     SUNNY     85  68  56 NW17      29.93R HX  88
6HR MIN TEMP:  74; 6HR MAX TEMP:  86;

STEVENS POINT  PTSUNNY   85  71  62 W9G18     29.88F HX  89
WAUPACA        PTSUNNY   91  71  52 W10G17    29.88S HX  97
WAUTOMA        NOT AVBL
WISC RAPIDS    PTSUNNY   88  71  57 W12       29.91R HX  94
6HR MIN TEMP:  76; 6HR MAX TEMP:  90;

CAMP DOUGLAS   NOT AVBL
$$

WIZ011>013-019>022-031-037>040-048>050-221900-
NORTHEAST WISCONSIN

CITY           SKY/WX    TMP DP  RH WIND       PRES   REMARKS
ANTIGO         SUNNY     82  66  57 W17G24    29.90R HX  84
STURGEON BAY   PTSUNNY   84  72  65 W18G26    29.84F HX  89
6HR MIN TEMP:  66; 6HR MAX TEMP:  84;

GREEN BAY      PTSUNNY   86  73  65 SW13      29.85F HX  93
6HR MIN TEMP:  75; 6HR MAX TEMP:  87;

MANITOWOC      NOT AVBL
APPLETON       PTSUNNY   84  72  65 SW14G20   29.88F HX  89
CLINTONVILLE   PTSUNNY   88  70  55 W13       29.86S HX  92
OSHKOSH        SUNNY     86  74  67 SW12G20   29.86F HX  94
6HR MIN TEMP:  73; 6HR MAX TEMP:  87;

$$

WIZ032>034-041-042-053>061-221900-
SOUTHWEST WISCONSIN

CITY           SKY/WX    TMP DP  RH WIND       PRES   REMARKS
LA CROSSE      SUNNY     90  70  51 NW16      29.91R HX  95
6HR MIN TEMP:  78; 6HR MAX TEMP:  91;

SPARTA         MOSUNNY   88  72  59 W9        29.92R HX  94
VIROQUA        FAIR      85  75  70 W8        29.95R HX  94
BOSCOBEL       SUNNY     90  75  61 W9        29.91F HX 100
6HR MIN TEMP:  77; 6HR MAX TEMP:  90;

PRAIRIE DU CHI MOSUNNY   86  73  64 S6        29.91S HX  93
PLATTEVILLE    FAIR      86  76  72 SW7       29.94F HX  96
$$

WIZ056-057-062-063-064-067-068-221900-
SOUTH CENTRAL WISCONSIN

CITY           SKY/WX    TMP DP  RH WIND       PRES   REMARKS
BARABOO/DELLS  SUNNY     87  71  59 SW12      29.90F HX  93
LONE ROCK      NOT AVBL
WATERTOWN      CLOUDY    84  74  72 SW15      29.92F HX  90
MADISON        MOSUNNY   87  74  64 VRB7      29.91F HX  95
6HR MIN TEMP:  75; 6HR MAX TEMP:  87;

MIDDLETON      FAIR      88  72  58 W12       29.93F HX  94
MONROE         PTSUNNY   84  73  70 SW7       29.95F HX  91
JANESVILLE     CLOUDY    88  72  58 SW12G17   29.94F HX  94
$$

WIZ051-052-058>065-066-070>072-221900-
SOUTHEAST WISCONSIN

CITY           SKY/WX    TMP DP  RH WIND       PRES   REMARKS
MILWAUKEE      MOSUNNY   88  71  57 SW15G24   29.93F HX  94
6HR MIN TEMP:  72; 6HR MAX TEMP:  88;

WAUKESHA         N/A    N/A N/A N/A SW13G20   29.95F
MILWAUKEE/TIMM PTSUNNY   84  70  61 SW15      29.93F HX  88
RACINE         MOSUNNY   87  72  60 SW10G21   29.95F HX  93
6HR MIN TEMP:  73; 6HR MAX TEMP:  87;

BURLINGTON     MOSUNNY   83  73  70 SW10G20   29.95F HX  89
KENOSHA        MOSUNNY   87  72  60 SW13G22   29.95F HX  93
6HR MIN TEMP:  72; 6HR MAX TEMP:  87;

FOND DU LAC    MOSUNNY   87  73  62 SW15G24   29.88F HX  94
6HR MIN TEMP:  74; 6HR MAX TEMP:  87;

SHEBOYGAN      MOSUNNY   86  73  65 SW17      29.88F HX  93
6HR MIN TEMP:  72; 6HR MAX TEMP:  86;

WEST BEND      CLOUDY    82  70  65 SW10G20   29.92F HX  86
JUNEAU         PTSUNNY   84  58  40 S17       29.93F HX  83
$$

LSZ147-162-221900-
LAKE SUPERIOR

STATION/POSITION TIME  TEMP    WIND        PRES    WAVE
                       AIR SEA DIR/SP/G            HT/PER
                 (UTC) (F)     (DEG/KT/KT) (MB)    (FT/S)
W MID LAKE BUOY  1650   51 40  260/ 17/ 19 1009.2R   3/ 5
PORT WING        1700   68     270/  9/ 12 1012.9R
SAXON HARBOR     1700          290/ 13/ 17 1012.2
$$

LMZ867-665-643>646-221900-
LAKE MICHIGAN

STATION/POSITION TIME  TEMP    WIND        PRES    WAVE
                       AIR SEA DIR/SP/G            HT/PER
                 (UTC) (F)     (DEG/KT/KT) (MB)    (FT/S)
N MID LAKE BUOY  1650   63 57  210/ 25/ 31 1008.7F   6/ 6
NORTHPORT PIER   1700   74     160/  5/ 11 1009.8R
KEWAUNEE LAKESHO 1700   56     180/ 15/ 18 1011.6F
SHEBOYGAN LAKESH 1700   73     180/ 21/ 25 1012.3F
PORT WASHINGTON  1700   65     170/  9/ 12 1013.5
ATWATER BUOY     1700   69     190/  8     1015.1F
MILWAUKEE LAKESH 1700   81     220/ 13/ 19   N/A
S MID LAKE BUOY  1650   70 68  180/ 16/ 17 1015.2F   2/ 4
KENOSHA   LAKESH 1700   84     230/ 13/ 22   N/A
$$

TC  - TEMPERATURE IN CELSIUS
VSB - VISIBILITY IN STATUTE MILES
WCI - WIND CHILL INDEX
HX  - HEAT INDEX



USA.gov is the U.S. government's official web portal to all federal, state and local government web resources and services.